Location: Strawberry
(45.6646°N, 111.9596°W)
Time: 23:11:46
(UTC+00:00)

Courier 1B Rocket - Pass Details

Date: 09 October 2022
Orbit: 920 x 1202 km, 28.3° (Epoch: 03 December)

Event Time Altitude Azimuth Distance (km) Brightness Sun altitude
Rises 01:05:40 0° 233° (SW) 3,924 9.3 -2.8°
Reaches altitude 10° 01:09:33 10° 214° (SW) 2,909 8.1 -3.4°
Maximum altitude 01:13:53 17° 176° (S) 2,348 7.0 -4.2°
Drops below altitude 10° 01:18:04 10° 138° (SE) 2,779 7.0 -4.9°
Enters shadow 01:21:32 - 119° (ESE) 3,641 7.5 -5.5°
Sets 01:21:39 0° 119° (ESE) 3,677 - -5.5°
